Location: Ferintosh
(52.7647°N, 112.9692°W)
Time: 15:43:58
(UTC+00:00)

Transit 2A - Pass Details

Date: 24 May 2024
Orbit: 592 x 959 km, 66.7° (Epoch: 23 June)

Event Time Altitude Azimuth Distance (km) Brightness Sun altitude
Rises 13:56:45 0° 319° (NW) 3,361 9.0 20.7°
Reaches altitude 10° 13:59:06 10° 318° (NW) 2,477 8.4 21.0°
Maximum altitude 14:04:53 77° 234° (SW) 927 6.7 21.9°
Drops below altitude 10° 14:11:07 10° 149° (SSE) 2,653 9.2 22.8°
Sets 14:13:43 0° 148° (SSE) 3,616 9.8 23.2°
